Regional Weather Roundup
Issued by NWS Mobile, AL

Home | Current Version | Previous Version | Text Only | Print | Product List | Glossary On
Versions: 1 2 3 4 5 6 7 8 9 10 11 12 13 14 15 16 17 18 19 20 21 22 23 24 25 26 27 28 29 30 31 32 33 34 35 36 37 38 39 40 41 42 43 44 45 46 47 48 49 50
000
ASUS44 KMOB 231012
RWRMOB
REGIONAL WEATHER ROUNDUP
NATIONAL WEATHER SERVICE MOBILE AL
500 AM CDT SUN APR 23 2017

NOTE: "FAIR" INDICATES FEW OR NO CLOUDS BELOW 12,000 FEET WITH NO
      SIGNIFICANT WEATHER AND/OR OBSTRUCTIONS TO VISIBILITY.

  * THESE STATIONS ARE PART OF THE UNIVERSITY OF SOUTH ALABAMA
    MESONET AND ARE NOT UNDER NWS OR FAA QUALITY CONTROL.

ALZ061>064-231100-
COASTAL ALABAMA

CITY           SKY/WX    TMP DP  RH WIND       PRES   REMARKS
MOBILE REG APT CLOUDY    65  63  93 CALM      29.84S
BROOKLEY FIELD CLOUDY    67  66  97 W6        29.84S
USA CAMPUS*      N/A     64  63  94 CALM      29.85R
DOG RIVER*       N/A     66  64  94 NW3       30.52


CITY           SKY/WX    TMP DP  RH WIND       PRES   REMARKS
GULF SHORES    LGT RAIN  66  66 100 CALM      29.83F

$$

ALZ051>060-231100-
INTERIOR SOUTHWEST AND SOUTH CENTRAL ALABAMA

CITY           SKY/WX    TMP DP  RH WIND       PRES   REMARKS
GREENVILLE     MOCLDY    65  61  87 NW3       29.81R
EVERGREEN      CLOUDY    64  62  93 CALM      29.81F
ATMORE*          N/A     64  63  94 W3        29.84S
ANDALUSIA/OPP    N/A     68  62  81 CALM      29.80S
ANDALUSIA*       N/A     63  63 100 CALM      29.81R
FLORALA APT    MOCLDY    67  64  90 CALM      29.83R
FLORALA*         N/A     66  64  94 CALM      30.47R

$$

FLZ001>006-231100-
WESTERN FLORIDA PANHANDLE

CITY           SKY/WX    TMP DP  RH WIND       PRES   REMARKS
PENSACOLA      LGT RAIN  70  65  84 SW6       29.82R
NAS PENSACOLA  CLOUDY    67  64  90 SW5       29.82S
MILTON         LGT RAIN  64  63  96 W5        29.82R
WHTNG S FIELD  MOCLDY    66  64  93 CALM      29.82R


CITY           SKY/WX    TMP DP  RH WIND       PRES   REMARKS
JAY*             N/A     64  63  94 SW6       29.83R
DUKE FIELD     CLOUDY    69  64  83 SW6       29.80R
CRESTVIEW      CLOUDY    67  63  87 NW5       29.82R
VALPARAISO     CLOUDY    73  68  84 SW13      29.81S
DESTIN         CLOUDY    76  73  91 SW9       29.81S

$$

MSZ076-079-231100-
INTERIOR SOUTHEAST MISSISSIPPI

CITY           SKY/WX    TMP DP  RH WIND       PRES   REMARKS
LEAKESVILLE*   NOT AVBL
AGRICOLA*      NOT AVBL

$$

MARINE OBSERVATIONS

STATION/POSITION TIME  TEMP    WIND        PRES    WAVE
                       AIR SEA DIR/SP/G            HT/PER
                 (UTC) (F)     (DEG/KT/KT) (MB)    (FT/S)
PASCAGOULA       0948   67     350/  9/ 11 1009.8R
PETIT BOIS ISLND 0948   69     350/ 12/ 15 1010.5R
GRAND BAY        0845   71     150/ 11     1010.0F
KATRINA CUT      0930   71     140/ 13     1009.1F
CEDAR POINT      0930   70     150/ 12     1009.1F
E DAUPHIN ISLAND 0900   69     150/ 10/ 11 1010.3F
MIDDLE BAY LIGHT 0930   70     150/ 16     1009.8F
USCG MOBILE BAY  0948   66 78  260/  3/  5 1010.7S
STATE DOCKS      0948   67 75              1010.0S
MEAHER PARK      0930   70     200/  7     1009.5F
FORT MORGAN      0948   69     140/  9/  9   N/A
12 S ORANGE BCH  0950   74 76  210/ 12/ 16 1009.7F   2/ 7
PENSACOLA BAY    0948   72 78  220/  9/ 11 1010.2R
64 S DAUPHIN ISL 0950   75 77  230/ 14/ 16 1010.5F   2/ 7
67 S FORT MORGAN 0930   73     250/ 14     1010.8S

$$

SELECTED LOCATIONS ACROSS THE REGION

CITY           SKY/WX    TMP DP  RH WIND       PRES   REMARKS
NEW ORLEANS    PTCLDY    65  60  84 N9        29.88S
GULFPORT       MOCLDY    64  62  93 NW7       29.84F
PASCAGOULA AP  CLOUDY    66  64  93 CALM      29.83S
PASCAGOULA*    NOT AVBL
HATTIESBURG    MOCLDY    59  56  89 NW7       29.88R
LAUREL         CLOUDY    57  54  88 NW6       29.88R
MERIDIAN       CLOUDY    57  55  93 NW9       29.86R
JACKSON        CLOUDY    54  51  90 NW6       29.91S
MONTGOMERY     MOCLDY    65  60  84 S3        29.80S
TROY           CLOUDY    67  66  97 CALM      29.81S
ASHFORD*         N/A     63  63 100 CALM      29.81R
DOTHAN         CLOUDY    68  67  96 S6        29.82F
PANAMA CITY    MOCLDY    67  65  93 SE6       29.80F

$$




USA.gov is the U.S. government's official web portal to all federal, state and local government web resources and services.